Regional Weather Roundup
Issued by NWS

Home | Current Version | Previous Version | Text Only | Print | Product List | Glossary Off
Versions: 1 2 3 4 5 6 7 8 9 10 11 12 13 14 15 16 17 18 19 20 21 22 23 24 25 26 27 28 29 30 31 32 33 34 35 36 37 38 39 40 41 42 43 44 45 46 47 48 49 50

000
ASUS45 KPSR 201800
RWRAZ

PRELIMINARY ARIZONA REGIONAL HOURLY WEATHER ROUNDUP
NATIONAL WEATHER SERVICE PHOENIX AZ
1100 AM MST WED AUG 20 2014

NOTE: FAIR INDICATES FEW OR NO CLOUDS BELOW 12,000 FEET WITH NO
SIGNIFICANT WEATHER AND/OR OBSTRUCTIONS TO VISIBILITY.

AZZ001>003-036-201900-
NORTHWEST ARIZONA

CITY           SKY/WX    TMP DP  RH WIND       PRES   REMARKS
KINGMAN        SUNNY     80  54  40 CALM      30.06R
6HR MIN TEMP:  59; 6HR MAX TEMP:  81;

$$

AZZ004>008-015-016-018-201900-
NORTH CENTRAL ARIZONA

CITY           SKY/WX    TMP DP  RH WIND       PRES   REMARKS
GRAND CANYON   MOSUNNY   68  46  45 SW12G17   30.24F
WILLIAMS       MOSUNNY   68  48  49 SW10      30.32S
PRESCOTT       MOSUNNY   76  55  48 VRB3      30.17R
6HR MIN TEMP:  54; 6HR MAX TEMP:  76;

FLAGSTAFF      NOT AVBL
PAYSON         SUNNY     73  57  56 VRB5G13   30.19F
PAGE           SUNNY     78  52  40 N6        30.07S
6HR MIN TEMP:  65; 6HR MAX TEMP:  78;

$$

AZZ009>014-017-201900-
NORTHEAST ARIZONA

CITY           SKY/WX    TMP DP  RH WIND       PRES   REMARKS
WINSLOW        NOT AVBL
SAINT JOHNS    MOSUNNY   74  49  41 NW7       30.18F
6HR MIN TEMP:  56; 6HR MAX TEMP:  75;

$$

AZZ023-201900-
GREATER PHOENIX AREA

CITY           SKY/WX    TMP DP  RH WIND       PRES   REMARKS
PHOENIX        MOSUNNY   90  64  42 SE6       29.92F
6HR MIN TEMP:  75; 6HR MAX TEMP:  90;

DEER VALLEY    SUNNY     85  62  46 SE3       29.95S
6HR MIN TEMP:  73; 6HR MAX TEMP:  86;

SCOTTSDALE     SUNNY     86  63  45 VRB3      29.96F
6HR MIN TEMP:  73; 6HR MAX TEMP:  86;

MESA-FALCON    MOSUNNY   86  61  42 S8        29.94F
MESA-GATEWAY   MOSUNNY   88  61  40 S5        29.97S
CHANDLER       MOSUNNY   88  63  42 VRB5      29.95S
$$

AZZ027-028-201900-
SOUTHWEST MARICOPA COUNTY AND PINAL COUNTY

CITY           SKY/WX    TMP DP  RH WIND       PRES   REMARKS
CASA GRANDE    SUNNY     88  61  40 CALM      29.96F
6HR MIN TEMP:  72; 6HR MAX TEMP:  88;

GILA BEND      CLEAR     93  57  29 S9        29.92S
$$

AZZ503-504-507>509-201900-
SOUTHEAST ARIZONA

CITY           SKY/WX    TMP DP  RH WIND       PRES   REMARKS
TUCSON         SUNNY     84  61  45 CALM      30.04F
6HR MIN TEMP:  72; 6HR MAX TEMP:  84;

NOGALES        MOSUNNY   79  59  50 VRB5      30.11S
6HR MIN TEMP:  61; 6HR MAX TEMP:  80;

SAFFORD        MOSUNNY   80  62  54 W12       30.04F
6HR MIN TEMP:  65; 6HR MAX TEMP:  80;

$$

AZZ020-021-025-026-031-201900-
SOUTHWEST ARIZONA

CITY           SKY/WX    TMP DP  RH WIND       PRES   REMARKS
YUMA           PTSUNNY   95  60  31 S12G22    29.85R
6HR MIN TEMP:  82; 6HR MAX TEMP:  96;

$$

CAZ031-033-041-043-047-048-061-201900-
SOUTHERN CALIFORNIA

CITY           SKY/WX    TMP DP  RH WIND       PRES   REMARKS
DOWNTOWN L.A.  SUNNY     78  59  51 CALM      29.94S
6HR MIN TEMP:  69; 6HR MAX TEMP:  79;

L.A. AIRPORT   MOSUNNY   75  58  55 SW9       29.96R
6HR MIN TEMP:  69; 6HR MAX TEMP:  75;

SAN DIEGO      PTSUNNY   72  59  63 SW7       29.96R
6HR MIN TEMP:  69; 6HR MAX TEMP:  73;

BURBANK        SUNNY     74  56  53 S8        29.95S
6HR MIN TEMP:  66; 6HR MAX TEMP:  75;

ONTARIO        MOSUNNY   75  56  51 S3        29.96S
6HR MIN TEMP:  63; 6HR MAX TEMP:  76;

RIVERSIDE      MOSUNNY   75  58  55 VRB5      29.95F
6HR MIN TEMP:  63; 6HR MAX TEMP:  75;

PALM SPRINGS   CLOUDY    87  54  32 VRB6      29.89S
6HR MIN TEMP:  77; 6HR MAX TEMP:  88; 6HR PCP: TRACE;

EL CENTRO NAS  PTSUNNY   93  39  15 SE6       29.84S
6HR MIN TEMP:  77; 6HR MAX TEMP:  93;

IMPERIAL       MOSUNNY   92  42  17 NW5       29.84R
6HR MIN TEMP:  77; 6HR MAX TEMP:  92;

BLYTHE         SUNNY     95  51  22 S13       29.86R
6HR MIN TEMP:  80; 6HR MAX TEMP:  95;

$$

NVZ020-UTZ003-201900-
SOUTHERN NEVADA-UTAH

CITY           SKY/WX    TMP DP  RH WIND       PRES   REMARKS
LAS VEGAS      NOT AVBL
SALT LAKE CITY MOSUNNY   73  55  53 S15G24    30.00F
6HR MIN TEMP:  62; 6HR MAX TEMP:  73;

$$

NMZ009-TXZ055-201900-
NEW MEXICO-WEST TEXAS

CITY           SKY/WX    TMP DP  RH WIND       PRES   REMARKS
ALBUQUERQUE    MOSUNNY   79  52  38 NE8       30.11F
6HR MIN TEMP:  66; 6HR MAX TEMP:  79;

EL PASO        MOSUNNY   82  57  42 NW7G17    30.02F
6HR MIN TEMP:  69; 6HR MAX TEMP:  83;

$$


........................KEY........................
SKY/WX - SKY CONDITION/WEATHER
TMP    - TEMPERATURE IN FAHRENHEIT
DP     - DEW POINT IN FAHRENHEIT
RH     - RELATIVE HUMIDITY IN PERCENT
WIND   - DIRECTION AND SPEED IN MILES PER HOUR (MPH)
VRB    - VARIABLE WIND DIRECTION
PRES   - MEAN SEA LEVEL PRESSURE IN INCHES OF MERCURY
         F - FALLING PRESSURE   R - RISING PRESSURE
         S - STEADY PRESSURE
VSB    - VISIBILITY IN MILES
HX     - HEAT INDEX IN FAHRENHEIT
WCI    - WIND CHILL INDEX IN FAHRENHEIT
TC     - TEMPERATURE IN CELSIUS WHICH IS ALSO KNOWN AS
         TEMPERATURE IN CENTIGRADE
AFB    - AIR FORCE BASE
         LUKE AFB IS LUKE AIR FORCE BASE
         DAVIS-MONTHAN IS DAVIS-MONTHAN AIR FORCE BASE
NAS    - NAVAL AIR STATION
         EL CENTRO NAS IS EL CENTRO NAVAL AIR STATION
N/A    - NOT AVAILABLE


USA.gov is the U.S. government's official web portal to all federal, state and local government web resources and services.